Time,TemperatureF,DewpointF,PressureIn,WindDirection,WindDirectionDegrees,WindSpeedMPH,WindSpeedGustMPH,Humidity,HourlyPrecipIn,Conditions,Clouds,dailyrainin,SolarRadiationWatts/m^2,SoftwareType,DateUTC
2013-06-09 00:02:00,62.0,44.0,-100.00,West,274,1.0,7.0,52,0.00,,,0.03,32.000000,,2013-06-09 08:02:00,
2013-06-09 00:12:00,62.0,44.0,-100.00,West,274,1.0,7.0,52,0.00,,,0.03,32.000000,,2013-06-09 08:12:00,
2013-06-09 00:32:00,52.0,44.0,-100.00,NW,316,0.0,5.0,75,0.00,,,0.03,10.000000,,2013-06-09 08:32:00,
2013-06-09 00:42:00,52.0,44.0,-100.00,NW,316,0.0,5.0,75,0.00,,,0.03,10.000000,,2013-06-09 08:42:00,
2013-06-09 00:53:00,52.0,44.0,-100.00,NW,316,0.0,5.0,75,0.00,,,0.03,10.000000,,2013-06-09 08:53:00,
2013-06-09 01:02:00,52.0,44.0,-100.00,NW,316,0.0,5.0,75,0.00,,,0.03,10.000000,,2013-06-09 09:02:00,
2013-06-09 01:12:00,52.0,44.0,-100.00,NW,316,0.0,5.0,75,0.00,,,0.03,10.000000,,2013-06-09 09:12:00,
2013-06-09 01:33:00,46.0,43.0,-100.00,West,269,0.0,0.0,89,0.00,,,-99.99,2.000000,,2013-06-09 09:33:00,
2013-06-09 01:43:00,46.0,43.0,-100.00,West,269,0.0,0.0,89,0.00,,,-99.99,2.000000,,2013-06-09 09:43:00,
2013-06-09 01:52:00,46.0,43.0,-100.00,West,269,0.0,0.0,89,0.00,,,-99.99,2.000000,,2013-06-09 09:52:00,
2013-06-09 02:03:00,46.0,43.0,-100.00,West,269,0.0,0.0,89,0.00,,,-99.99,2.000000,,2013-06-09 10:03:00,
2013-06-09 02:32:00,43.0,42.0,-100.00,SSE,157,0.0,0.0,96,-99.99,,,0.03,0.000000,,2013-06-09 10:32:00,
2013-06-09 02:43:00,43.0,42.0,-100.00,SSE,157,0.0,0.0,96,-99.99,,,0.03,0.000000,,2013-06-09 10:43:00,
2013-06-09 02:52:00,43.0,42.0,-100.00,SSE,157,0.0,0.0,96,-99.99,,,0.03,0.000000,,2013-06-09 10:52:00,
2013-06-09 03:02:00,43.0,42.0,-100.00,SSE,157,0.0,0.0,96,-99.99,,,0.03,0.000000,,2013-06-09 11:02:00,
2013-06-09 03:32:00,40.0,39.0,-100.00,SSE,152,0.0,0.0,95,-99.99,,,0.03,3.000000,,2013-06-09 11:32:00,
2013-06-09 03:42:00,40.0,39.0,-100.00,SSE,152,0.0,0.0,95,-99.99,,,0.03,3.000000,,2013-06-09 11:42:00,
2013-06-09 03:52:00,40.0,39.0,-100.00,SSE,152,0.0,0.0,95,-99.99,,,0.03,3.000000,,2013-06-09 11:52:00,
2013-06-09 04:02:00,40.0,39.0,-100.00,SSE,152,0.0,0.0,95,-99.99,,,0.03,3.000000,,2013-06-09 12:02:00,
2013-06-09 04:32:00,38.0,37.0,-100.00,SSE,152,0.0,1.0,96,-99.99,,,0.03,16.000000,,2013-06-09 12:32:00,
2013-06-09 04:42:00,38.0,37.0,-100.00,SSE,152,0.0,1.0,96,-99.99,,,0.03,16.000000,,2013-06-09 12:42:00,
2013-06-09 04:52:00,38.0,37.0,-100.00,SSE,152,0.0,1.0,96,-99.99,,,0.03,16.000000,,2013-06-09 12:52:00,
2013-06-09 05:02:00,38.0,37.0,-100.00,SSE,152,0.0,1.0,96,-99.99,,,0.03,16.000000,,2013-06-09 13:02:00,
2013-06-09 05:42:00,40.0,39.0,-100.00,NE,43,0.0,0.0,96,-99.99,,,0.03,38.000000,,2013-06-09 13:42:00,
2013-06-09 05:52:00,40.0,39.0,-100.00,NE,43,0.0,0.0,96,-99.99,,,0.03,38.000000,,2013-06-09 13:52:00,
2013-06-09 06:02:00,40.0,39.0,-100.00,NE,43,0.0,0.0,96,-99.99,,,0.03,38.000000,,2013-06-09 14:02:00,
2013-06-09 06:32:00,51.0,49.0,-100.00,ENE,71,0.0,2.0,93,-99.99,,,0.03,120.000000,,2013-06-09 14:32:00,
2013-06-09 06:43:00,51.0,49.0,-100.00,ENE,71,0.0,2.0,93,-99.99,,,0.03,120.000000,,2013-06-09 14:43:00,
2013-06-09 06:52:00,51.0,49.0,-100.00,ENE,71,0.0,2.0,93,-99.99,,,0.03,120.000000,,2013-06-09 14:52:00,
2013-06-09 07:02:00,51.0,49.0,-100.00,ENE,71,0.0,2.0,93,-99.99,,,0.03,120.000000,,2013-06-09 15:02:00,
2013-06-09 07:12:00,51.0,49.0,-100.00,ENE,71,0.0,2.0,93,-99.99,,,0.03,120.000000,,2013-06-09 15:12:00,
2013-06-09 07:33:00,56.0,49.0,-100.00,NNE,25,0.0,3.0,77,0.00,,,0.03,195.000000,,2013-06-09 15:33:00,
2013-06-09 07:43:00,56.0,49.0,-100.00,NNE,25,0.0,3.0,77,0.00,,,0.03,195.000000,,2013-06-09 15:43:00,
2013-06-09 07:53:00,56.0,49.0,-100.00,NNE,25,0.0,3.0,77,0.00,,,0.03,195.000000,,2013-06-09 15:53:00,
2013-06-09 08:03:00,56.0,49.0,-100.00,NNE,25,0.0,3.0,77,0.00,,,0.03,195.000000,,2013-06-09 16:03:00,
2013-06-09 08:13:00,56.0,49.0,-100.00,NNE,25,0.0,3.0,77,0.00,,,0.03,195.000000,,2013-06-09 16:13:00,
2013-06-09 08:33:00,61.0,47.0,-100.00,SW,227,1.0,4.0,61,0.00,,,0.03,334.000000,,2013-06-09 16:33:00,
2013-06-09 08:42:00,61.0,47.0,-100.00,SW,227,1.0,4.0,61,0.00,,,0.03,334.000000,,2013-06-09 16:42:00,
2013-06-09 08:53:00,61.0,47.0,-100.00,SW,227,1.0,4.0,61,0.00,,,0.03,334.000000,,2013-06-09 16:53:00,
2013-06-09 09:02:00,61.0,47.0,-100.00,SW,227,1.0,4.0,61,0.00,,,0.03,334.000000,,2013-06-09 17:02:00,
2013-06-09 09:12:00,61.0,47.0,-100.00,SW,227,1.0,4.0,61,0.00,,,0.03,334.000000,,2013-06-09 17:12:00,
2013-06-09 09:32:00,64.0,43.0,-100.00,WSW,247,1.0,7.0,46,0.00,,,0.03,456.000000,,2013-06-09 17:32:00,
2013-06-09 09:42:00,64.0,43.0,-100.00,WSW,247,1.0,7.0,46,0.00,,,0.03,456.000000,,2013-06-09 17:42:00,
2013-06-09 09:52:00,64.0,43.0,-100.00,WSW,247,1.0,7.0,46,0.00,,,0.03,456.000000,,2013-06-09 17:52:00,
2013-06-09 10:02:00,64.0,43.0,-100.00,WSW,247,1.0,7.0,46,0.00,,,0.03,456.000000,,2013-06-09 18:02:00,
2013-06-09 10:12:00,64.0,43.0,-100.00,WSW,247,1.0,7.0,46,0.00,,,0.03,456.000000,,2013-06-09 18:12:00,
2013-06-09 10:33:00,65.0,40.0,-100.00,WSW,250,3.0,9.0,40,0.00,,,0.03,467.000000,,2013-06-09 18:33:00,
2013-06-09 10:42:00,65.0,40.0,-100.00,WSW,250,3.0,9.0,40,0.00,,,0.03,467.000000,,2013-06-09 18:42:00,
2013-06-09 10:52:00,65.0,40.0,-100.00,WSW,250,3.0,9.0,40,0.00,,,0.03,467.000000,,2013-06-09 18:52:00,
2013-06-09 11:02:00,65.0,40.0,-100.00,WSW,250,3.0,9.0,40,0.00,,,0.03,467.000000,,2013-06-09 19:02:00,
2013-06-09 11:12:00,65.0,40.0,-100.00,WSW,250,3.0,9.0,40,0.00,,,0.03,467.000000,,2013-06-09 19:12:00,
2013-06-09 11:32:00,69.0,41.0,-100.00,SW,233,3.0,10.0,36,0.00,,,0.03,723.000000,,2013-06-09 19:32:00,
2013-06-09 11:43:00,69.0,41.0,-100.00,SW,233,3.0,10.0,36,0.00,,,0.03,723.000000,,2013-06-09 19:43:00,
2013-06-09 11:52:00,69.0,41.0,-100.00,SW,233,3.0,10.0,36,0.00,,,0.03,723.000000,,2013-06-09 19:52:00,
2013-06-09 12:02:00,69.0,41.0,-100.00,SW,233,3.0,10.0,36,0.00,,,0.03,723.000000,,2013-06-09 20:02:00,
2013-06-09 12:12:00,69.0,41.0,-100.00,SW,233,3.0,10.0,36,0.00,,,0.03,723.000000,,2013-06-09 20:12:00,
2013-06-09 12:32:00,70.0,41.0,-100.00,SW,235,4.0,19.0,35,0.00,,,0.03,815.000000,,2013-06-09 20:32:00,
2013-06-09 12:42:00,70.0,41.0,-100.00,SW,235,4.0,19.0,35,0.00,,,0.03,815.000000,,2013-06-09 20:42:00,
2013-06-09 12:52:00,70.0,41.0,-100.00,SW,235,4.0,19.0,35,0.00,,,0.03,815.000000,,2013-06-09 20:52:00,
2013-06-09 13:02:00,70.0,41.0,-100.00,SW,235,4.0,19.0,35,0.00,,,0.03,815.000000,,2013-06-09 21:02:00,
2013-06-09 13:12:00,70.0,41.0,-100.00,SW,235,4.0,19.0,35,0.00,,,0.03,815.000000,,2013-06-09 21:12:00,
2013-06-09 13:33:00,68.0,39.0,-100.00,WNW,291,3.0,13.0,35,0.00,,,0.03,625.000000,,2013-06-09 21:33:00,
2013-06-09 13:43:00,68.0,39.0,-100.00,WNW,291,3.0,13.0,35,0.00,,,0.03,625.000000,,2013-06-09 21:43:00,
2013-06-09 13:53:00,68.0,39.0,-100.00,WNW,291,3.0,13.0,35,0.00,,,0.03,625.000000,,2013-06-09 21:53:00,
2013-06-09 14:02:00,68.0,39.0,-100.00,WNW,291,3.0,13.0,35,0.00,,,0.03,625.000000,,2013-06-09 22:02:00,
2013-06-09 14:12:00,68.0,39.0,-100.00,WNW,291,3.0,13.0,35,0.00,,,0.03,625.000000,,2013-06-09 22:12:00,
2013-06-09 14:33:00,68.0,40.0,-100.00,West,262,3.0,12.0,36,0.00,,,0.03,618.000000,,2013-06-09 22:33:00,
2013-06-09 14:42:00,68.0,40.0,-100.00,West,262,3.0,12.0,36,0.00,,,0.03,618.000000,,2013-06-09 22:42:00,
2013-06-09 14:52:00,68.0,40.0,-100.00,West,262,3.0,12.0,36,0.00,,,0.03,618.000000,,2013-06-09 22:52:00,
2013-06-09 15:02:00,68.0,40.0,-100.00,West,262,3.0,12.0,36,0.00,,,0.03,618.000000,,2013-06-09 23:02:00,
2013-06-09 15:12:00,68.0,40.0,-100.00,West,262,3.0,12.0,36,0.00,,,0.03,618.000000,,2013-06-09 23:12:00,
2013-06-09 15:32:00,70.0,43.0,-100.00,WSW,244,3.0,10.0,38,0.00,,,0.03,630.000000,,2013-06-09 23:32:00,
2013-06-09 15:43:00,70.0,43.0,-100.00,WSW,244,3.0,10.0,38,0.00,,,0.03,630.000000,,2013-06-09 23:43:00,
2013-06-09 15:52:00,70.0,43.0,-100.00,WSW,244,3.0,10.0,38,0.00,,,0.03,630.000000,,2013-06-09 23:52:00,
2013-06-09 16:02:00,70.0,43.0,-100.00,WSW,244,3.0,10.0,38,0.00,,,0.03,630.000000,,2013-06-10 00:02:00,
2013-06-09 16:42:00,68.0,41.0,-100.00,WNW,283,4.0,12.0,37,0.00,,,0.03,462.000000,,2013-06-10 00:42:00,
2013-06-09 16:52:00,68.0,41.0,-100.00,WNW,283,4.0,12.0,37,0.00,,,0.03,462.000000,,2013-06-10 00:52:00,
2013-06-09 17:02:00,68.0,41.0,-100.00,WNW,283,4.0,12.0,37,0.00,,,0.03,462.000000,,2013-06-10 01:02:00,
2013-06-09 17:12:00,68.0,41.0,-100.00,WNW,283,4.0,12.0,37,0.00,,,0.03,462.000000,,2013-06-10 01:12:00,
2013-06-09 17:32:00,66.0,40.0,-100.00,WNW,293,3.0,13.0,39,0.00,,,0.03,383.000000,,2013-06-10 01:32:00,
2013-06-09 17:43:00,66.0,40.0,-100.00,WNW,293,3.0,13.0,39,0.00,,,0.03,383.000000,,2013-06-10 01:43:00,
2013-06-09 17:52:00,66.0,40.0,-100.00,WNW,293,3.0,13.0,39,0.00,,,0.03,383.000000,,2013-06-10 01:52:00,
2013-06-09 18:02:00,66.0,40.0,-100.00,WNW,293,3.0,13.0,39,0.00,,,0.03,383.000000,,2013-06-10 02:02:00,
2013-06-09 18:12:00,66.0,40.0,-100.00,WNW,293,3.0,13.0,39,0.00,,,0.03,383.000000,,2013-06-10 02:12:00,
2013-06-09 18:32:00,62.0,43.0,-100.00,West,259,3.0,14.0,50,0.00,,,0.03,178.000000,,2013-06-10 02:32:00,
2013-06-09 18:42:00,62.0,43.0,-100.00,West,259,3.0,14.0,50,0.00,,,0.03,178.000000,,2013-06-10 02:42:00,
2013-06-09 18:52:00,62.0,43.0,-100.00,West,259,3.0,14.0,50,0.00,,,0.03,178.000000,,2013-06-10 02:52:00,
2013-06-09 19:02:00,62.0,43.0,-100.00,West,259,3.0,14.0,50,0.00,,,0.03,178.000000,,2013-06-10 03:02:00,
2013-06-09 19:12:00,62.0,43.0,-100.00,West,259,3.0,14.0,50,0.00,,,0.03,178.000000,,2013-06-10 03:12:00,
2013-06-09 19:33:00,60.0,47.0,-100.00,West,278,2.0,15.0,61,0.00,,,0.01,120.000000,,2013-06-10 03:33:00,
2013-06-09 19:43:00,60.0,47.0,-100.00,West,278,2.0,15.0,61,0.00,,,0.01,120.000000,,2013-06-10 03:43:00,
2013-06-09 19:53:00,60.0,47.0,-100.00,West,278,2.0,15.0,61,0.00,,,0.01,120.000000,,2013-06-10 03:53:00,
2013-06-09 20:03:00,60.0,47.0,-100.00,West,278,2.0,15.0,61,0.00,,,0.01,120.000000,,2013-06-10 04:03:00,
2013-06-09 20:12:00,60.0,47.0,-100.00,West,278,2.0,15.0,61,0.00,,,0.01,120.000000,,2013-06-10 04:12:00,
2013-06-09 20:33:00,61.0,47.0,-100.00,West,274,2.0,7.0,59,0.00,,,0.00,123.000000,,2013-06-10 04:33:00,
2013-06-09 20:42:00,61.0,47.0,-100.00,West,274,2.0,7.0,59,0.00,,,0.00,123.000000,,2013-06-10 04:42:00,
2013-06-09 20:52:00,61.0,47.0,-100.00,West,274,2.0,7.0,59,0.00,,,0.00,123.000000,,2013-06-10 04:52:00,
2013-06-09 21:02:00,61.0,47.0,-100.00,West,274,2.0,7.0,59,0.00,,,0.00,123.000000,,2013-06-10 05:02:00,
2013-06-09 21:12:00,61.0,47.0,-100.00,West,274,2.0,7.0,59,0.00,,,0.00,123.000000,,2013-06-10 05:12:00,
2013-06-09 21:32:00,61.0,44.0,-100.00,West,276,3.0,13.0,53,0.00,,,0.00,119.000000,,2013-06-10 05:32:00,
2013-06-09 21:42:00,61.0,44.0,-100.00,West,276,3.0,13.0,53,0.00,,,0.00,119.000000,,2013-06-10 05:42:00,
2013-06-09 21:52:00,61.0,44.0,-100.00,West,276,3.0,13.0,53,0.00,,,0.00,119.000000,,2013-06-10 05:52:00,
2013-06-09 22:02:00,61.0,44.0,-100.00,West,276,3.0,13.0,53,0.00,,,0.00,119.000000,,2013-06-10 06:02:00,
2013-06-09 22:12:00,61.0,44.0,-100.00,West,276,3.0,13.0,53,0.00,,,0.00,119.000000,,2013-06-10 06:12:00,
2013-06-09 22:32:00,60.0,43.0,-100.00,West,263,1.0,9.0,54,0.00,,,0.00,80.000000,,2013-06-10 06:32:00,
2013-06-09 22:42:00,60.0,43.0,-100.00,West,263,1.0,9.0,54,0.00,,,0.00,80.000000,,2013-06-10 06:42:00,
2013-06-09 22:52:00,60.0,43.0,-100.00,West,263,1.0,9.0,54,0.00,,,0.00,80.000000,,2013-06-10 06:52:00,
2013-06-09 23:02:00,60.0,43.0,-100.00,West,263,1.0,9.0,54,0.00,,,0.00,80.000000,,2013-06-10 07:02:00,
2013-06-09 23:12:00,60.0,43.0,-100.00,West,263,1.0,9.0,54,0.00,,,0.00,80.000000,,2013-06-10 07:12:00,
2013-06-09 23:32:00,58.0,45.0,-100.00,SW,222,1.0,6.0,63,0.00,,,0.00,37.000000,,2013-06-10 07:32:00,
2013-06-09 23:42:00,58.0,45.0,-100.00,SW,222,1.0,6.0,63,0.00,,,0.00,37.000000,,2013-06-10 07:42:00,
2013-06-09 23:52:00,58.0,45.0,-100.00,SW,222,1.0,6.0,63,0.00,,,0.00,37.000000,,2013-06-10 07:52:00,